[[{"header":{"parameterUnit":"m.s-1","parameterCategory":1,"la1":30.2992,"la2":30.254,"lo1":-89.0895,"lo2":-89.0443,"dy":0.0025,"dx":0.0025,"nx":19,"ny":19,"refTime":"2026-03-10T09:00:00:Z","depth":0,"parameterNumber":2,"parameterNumberName":"U-component_of_WINDS"},"data":[0,0,0,-1.3057,-1.3058,-1.3116,-1.3117,-1.3186,-1.3186,0,0,0,0,0,0,0,0,0,0,0,-1.3036,-1.3036,-1.3057,-1.3058,-1.3116,-1.3117,-1.3185,-1.3186,0,0,0,0,0,0,0,0,0,0,0,-1.3035,-1.3036,-1.3036,-1.3058,-1.3116,-1.3117,-1.3185,-1.3144,0,0,0,0,0,0,0,0,0,0,-1.3088,-1.3064,-1.3036,-1.3036,-1.3059,-1.3116,-1.3117,-1.3142,-1.3146,-1.3157,0,-1.3164,0,-1.3176,-1.319,-1.319,0,0,0,-1.3062,-1.306,-1.308,-1.3036,-1.3059,-1.3116,-1.3091,-1.3144,-1.3149,-1.3162,-1.3165,-1.3168,-1.3177,-1.3191,-1.3191,-1.3236,-1.3236,0,0,-1.3059,-1.3044,-1.3076,-1.3083,-1.3072,-1.3089,-1.3093,-1.3148,-1.3149,-1.3165,-1.3169,-1.3178,-1.3191,-1.3192,-1.3236,-1.3236,0,0,0,-1.3047,-1.3042,-1.306,-1.308,-1.309,-1.3091,-1.3095,-1.3147,-1.3154,-1.317,-1.3179,-1.3191,-1.3192,-1.3236,-1.3236,-1.3224,0,0,0,-1.3045,-1.3035,-1.3058,-1.305,-1.3089,-1.3119,-1.3093,-1.315,-1.3157,-1.3179,-1.3191,-1.3193,-1.3236,-1.3236,-1.3224,-1.3221,0,0,0,-1.3033,-1.3034,-1.304,-1.3049,-1.3073,-1.3119,-1.3129,-1.3152,-1.3162,-1.3191,-1.3193,-1.3236,-1.3236,-1.3224,-1.3221,-1.3228,0,0,0,-1.3017,-1.3029,-1.304,-1.3058,-1.3073,-1.311,-1.3129,-1.3158,-1.3181,-1.3192,-1.3236,-1.3236,-1.3224,-1.3221,-1.3228,-1.3231,-1.3231,0,0,-1.3025,-1.303,-1.3041,-1.3053,-1.3084,-1.3103,-1.3133,-1.3168,-1.3185,-1.3219,-1.322,-1.3224,-1.3221,-1.3228,-1.3235,-1.3235,0,0,0,-1.3039,-1.3047,-1.3059,-1.3079,-1.3105,-1.3128,-1.316,-1.3173,-1.3202,-1.3199,-1.3229,-1.3228,-1.3232,-1.3235,-1.3234,-1.3239,-1.3237,-1.3237,-1.3237,-1.303,-1.3049,-1.3069,-1.3096,-1.3115,-1.3148,-1.3166,-1.3189,-1.3204,-1.3211,-1.3221,-1.3223,-1.3225,-1.3225,-1.323,-1.3224,-1.3224,-1.3224,-1.3224,-1.3043,-1.3057,-1.3076,-1.3102,-1.3123,-1.3146,-1.3178,-1.3187,-1.3212,-1.3217,-1.3222,-1.3226,-1.3224,-1.3229,-1.3224,-1.3224,-1.3224,-1.3224,-1.3224,-1.3039,-1.3049,-1.3064,-1.3095,-1.3117,-1.3144,-1.3166,-1.3185,-1.3203,-1.3208,-1.3221,-1.3221,-1.3224,-1.3213,-1.3213,-1.3213,-1.3213,-1.3213,-1.3213,-1.3029,-1.3046,-1.3062,-1.309,-1.3106,-1.3128,-1.3161,-1.3177,-1.32,-1.3212,-1.3212,-1.3226,-1.322,-1.3217,-1.3213,-1.3213,-1.3213,-1.3213,-1.3213,-1.3035,-1.3036,-1.3061,-1.3076,-1.3111,-1.3132,-1.3155,-1.3186,-1.3202,-1.3212,-1.3226,-1.3218,-1.3225,-1.3225,-1.3224,-1.3221,-1.3221,-1.3221,-1.3221,-1.3032,-1.3037,-1.3066,-1.3088,-1.3113,-1.3136,-1.3165,-1.319,-1.3217,-1.3228,-1.3232,-1.3231,-1.3231,-1.3238,-1.3238,-1.3237,-1.3238,-1.3238,-1.3238,-1.3036,-1.3045,-1.3064,-1.3089,-1.3118,-1.3142,-1.3169,-1.3196,-1.3227,-1.3239,-1.3238,-1.3237,-1.3237,-1.3235,-1.3247,-1.3247,-1.3245,0,0]},{"header":{"parameterUnit":"m.s-1","parameterCategory":1,"la1":30.2992,"la2":30.254,"lo1":-89.0895,"lo2":-89.0443,"dy":0.0025,"dx":0.0025,"nx":19,"ny":19,"refTime":"2026-03-10T09:00:00:Z","depth":0,"parameterNumber":3,"parameterNumberName":"V-component_of_WINDS"},"data":[0,0,0,4.3937,4.394,4.4089,4.4089,4.4279,4.428,0,0,0,0,0,0,0,0,0,0,0,4.389,4.3891,4.3936,4.394,4.4089,4.4089,4.4278,4.428,0,0,0,0,0,0,0,0,0,0,0,4.389,4.3891,4.3892,4.3941,4.4089,4.4089,4.4278,4.4166,0,0,0,0,0,0,0,0,0,0,4.4022,4.3976,4.3891,4.3893,4.3941,4.4088,4.4089,4.4161,4.4173,4.421,0,4.4241,0,4.4263,4.4293,4.4293,0,0,0,4.3942,4.3966,4.4008,4.3893,4.3943,4.4088,4.4022,4.4168,4.4182,4.4226,4.4244,4.4251,4.4267,4.4294,4.4295,4.4499,4.45,0,0,4.3934,4.3916,4.3999,4.4017,4.3992,4.4017,4.4027,4.4176,4.4194,4.4244,4.4255,4.427,4.4295,4.4297,4.4498,4.4499,0,0,0,4.3909,4.391,4.3949,4.4009,4.4036,4.4022,4.4032,4.4188,4.4202,4.4257,4.4272,4.4296,4.4298,4.4497,4.4498,4.4524,0,0,0,4.3904,4.3895,4.3945,4.3935,4.4033,4.4113,4.404,4.4191,4.4209,4.4271,4.4296,4.43,4.4496,4.4498,4.4521,4.454,0,0,0,4.3881,4.3893,4.3913,4.3934,4.3997,4.4111,4.4134,4.4196,4.4218,4.4293,4.4301,4.4495,4.4497,4.4519,4.4536,4.459,0,0,0,4.3852,4.3933,4.3913,4.401,4.3996,4.4125,4.4133,4.4231,4.4299,4.4297,4.4496,4.4498,4.4518,4.4533,4.4587,4.4633,4.465,0,0,4.3945,4.3944,4.4002,4.3989,4.4117,4.4104,4.4237,4.4316,4.434,4.4445,4.445,4.4522,4.4535,4.4589,4.4748,4.4762,0,0,0,4.4026,4.4068,4.4106,4.4169,4.4231,4.4288,4.4348,4.4378,4.4468,4.439,4.4556,4.4564,4.4597,4.462,4.4631,4.4661,4.4507,4.4507,4.4507,4.4132,4.4158,4.4257,4.4302,4.4364,4.4427,4.448,4.4531,4.4539,4.4578,4.461,4.4703,4.4729,4.4738,4.4769,4.4635,4.4635,4.4635,4.4635,4.4271,4.4336,4.4346,4.4446,4.4474,4.4559,4.4623,4.4626,4.4711,4.4681,4.4711,4.4677,4.4751,4.478,4.4637,4.4637,4.4637,4.4636,4.4636,4.4345,4.4381,4.4416,4.4512,4.4584,4.4626,4.4708,4.473,4.4752,4.4781,4.4819,4.4818,4.4823,4.4797,4.4797,4.4798,4.4798,4.4798,4.4798,4.4409,4.4447,4.4512,4.4586,4.4632,4.4694,4.4759,4.4804,4.4861,4.4871,4.4872,4.4878,4.4753,4.4722,4.4804,4.4803,4.4802,4.4802,4.4801,4.4544,4.4517,4.4618,4.4663,4.4754,4.4825,4.4852,4.4943,4.4984,4.5024,4.5024,4.4928,4.4929,4.492,4.4895,4.5016,4.5016,4.5016,4.5016,4.4608,4.461,4.4719,4.4791,4.4863,4.4898,4.5014,4.5067,4.5117,4.5144,4.513,4.5098,4.5088,4.5095,4.5083,4.506,4.522,4.522,4.5221,4.4694,4.4704,4.4798,4.4845,4.4918,4.4981,4.5091,4.5175,4.5226,4.5229,4.5167,4.5159,4.5107,4.5089,4.5092,4.5072,4.503,0,0]}]]